Probability
0 0 0 0 0 0 0 0 0 0 0 0 0 6 10 3 13 10 39 58 71 84 81 77 77 74 71 68 68 61 65 65 68 74 74 74 68 74 71 74 84 81 81 77
0 0 0 0 0 0 0 0 0 0 0 0 0 0 10 10 3 13 32 61 71 81 81 81 74 71 71 65 68 65 58 61 68 71 71 74 61 65 65 71 84 81 77 81
0 0 0 0 0 0 0 0 0 0 0 0 0 0 0 3 6 13 26 52 61 81 77 81 74 71 71 71 68 61 65 71 68 68 74 71 61 55 68 74 77 77 71 61
0 0 0 0 0 0 0 0 0 0 0 0 0 0 3 10 10 10 29 48 58 77 74 77 77 71 68 68 65 77 74 77 71 65 65 61 55 48 65 74 71 68 58 61
0 0 0 0 0 0 0 0 0 0 0 0 0 0 3 6 10 13 16 32 42 74 68 74 81 74 68 65 71 74 81 77 74 74 71 77 58 65 61 68 71 71 61 58
0 0 0 0 0 0 0 0 0 0 0 0 0 0 0 3 0 10 19 26 52 65 65 68 71 71 68 68 77 71 77 77 74 74 71 65 68 71 71 71 68 68 58 55
0 0 0 0 0 0 0 0 0 0 0 0 0 0 0 0 0 6 19 35 39 61 65 71 74 71 71 74 77 77 77 81 77 74 74 74 71 71 68 58 61 61 52 52
0 0 0 0 0 0 0 0 0 0 0 0 0 0 3 0 0 6 19 32 35 65 65 61 71 68 65 61 68 74 71 71 68 71 77 81 74 65 61 68 61 58 52 55
0 0 0 0 0 0 0 0 0 0 0 0 0 0 0 3 0 10 23 29 29 52 61 65 71 68 65 65 68 68 77 71 77 77 74 81 74 58 58 68 58 55 61 48
0 0 0 0 0 0 0 0 0 0 0 0 0 0 3 6 3 3 19 26 39 42 55 65 58 74 65 71 68 68 71 74 71 65 74 55 65 65 65 58 58 65 65 58
0 0 0 0 0 0 0 0 0 0 3 0 0 0 0 3 6 6 16 29 42 48 58 68 71 74 74 71 71 74 74 77 74 61 61 61 61 55 61 55 58 61 61 52
0 0 0 0 0 0 0 0 0 0 0 0 0 0 0 3 6 6 13 26 39 42 61 68 68 65 71 71 65 74 74 74 71 71 68 58 61 61 55 58 58 65 61 61
0 0 3 0 0 0 0 0 0 0 3 0 0 0 0 3 6 16 16 32 42 48 68 77 84 74 71 71 68 68 65 65 55 61 58 55 58 55 58 58 61 61 58 48
0 0 0 0 0 0 0 0 0 0 0 0 0 0 0 3 13 23 29 35 39 65 84 81 90 84 74 81 74 68 71 58 55 61 58 61 55 65 61 61 61 61 61 58
0 0 0 0 0 0 0 0 0 0 0 0 3 0 6 16 26 16 23 26 45 61 77 84 87 87 90 84 84 71 68 65 68 71 68 68 65 68 61 61 58 61 58 52
0 0 0 0 0 0 0 0 0 0 0 0 0 0 10 13 16 26 29 35 45 61 65 81 81 90 94 87 84 77 81 74 81 74 68 68 68 65 58 58 61 61 61 58
0 3 0 0 0 0 0 0 0 0 0 0 6 6 16 16 23 26 35 32 39 52 71 81 84 94 100 94 94 90 84 84 81 74 74 81 74 68 61 48 58 65 68 71
13 19 10 0 0 0 0 0 0 0 3 6 10 16 19 19 16 19 26 35 35 42 48 71 81 90 90 94 94 94 90 84 81 81 77 77 77 68 65 74 61 65 68 74
13 13 3 0 0 0 0 3 3 3 3 6 13 13 13 23 16 19 26 26 35 48 55 61 68 74 90 94 90 90 90 84 84 81 81 84 81 77 68 71 74 81 81 81
3 10 3 0 0 0 0 0 0 3 3 10 10 16 13 13 19 13 26 29 32 42 45 61 65 74 84 97 100 100 87 87 87 77 81 81 81 77 71 77 77 81 81 77
0 3 0 0 0 0 0 0 0 0 10 13 10 13 16 23 16 26 32 29 35 42 42 55 58 65 74 84 90 90 87 90 87 81 87 87 84 84 87 77 81 74 71 68
0 0 0 0 0 0 0 0 3 13 13 10 10 10 10 13 16 19 29 19 26 29 29 35 55 61 71 65 74 77 77 77 87 90 87 87 81 71 55 77 77 71 65 71
0 3 6 6 0 6 3 6 13 19 10 10 6 6 6 13 16 16 19 23 23 26 29 32 32 39 45 52 52 65 71 74 77 71 74 74 77 74 74 71 68 58 58 35
0 0 0 0 3 6 6 6 10 6 6 6 6 6 6 13 13 13 13 16 16 19 23 23 23 29 39 39 42 52 55 65 65 68 65 65 65 71 71 65 45 42 39 32
0 3 3 6 3 3 3 3 6 6 3 3 3 10 13 3 6 13 13 10 10 13 16 16 19 29 29 32 35 42 48 52 61 61 65 65 55 52 48 35 26 19 16 10
0 0 0 0 0 3 3 6 3 0 3 3 3 3 0 0 6 3 6 6 6 6 16 16 16 26 23 23 26 35 42 45 48 48 48 45 48 39 32 19 10 0 0 0
Height
5835 5838 5840 5843 5845 5848 5850 5852 5854 5856 5857 5856 5856 5856 5855 5854 5853 5852 5851 5850 5849 5847 5846 5845 5844 5843 5842 5841 5842 5842 5843 5845 5847 5849 5851 5854 5856 5859 5861 5864 5867 5869 5871 5874
5830 5833 5836 5838 5841 5844 5846 5848 5850 5851 5852 5853 5852 5852 5852 5851 5850 5849 5848 5846 5845 5844 5843 5842 5840 5839 5839 5838 5839 5840 5841 5842 5844 5846 5848 5851 5853 5856 5858 5861 5864 5866 5869 5872
5825 5830 5831 5833 5837 5840 5842 5844 5847 5848 5849 5849 5849 5848 5847 5846 5845 5845 5844 5844 5842 5841 5840 5839 5837 5836 5836 5836 5836 5837 5838 5840 5841 5843 5845 5848 5851 5854 5856 5859 5861 5864 5866 5869
5821 5825 5827 5830 5832 5835 5837 5840 5842 5844 5845 5846 5847 5845 5844 5843 5841 5840 5839 5840 5839 5838 5837 5835 5834 5833 5833 5833 5833 5834 5836 5837 5839 5840 5843 5845 5848 5851 5854 5856 5859 5861 5864 5866
5816 5820 5822 5825 5829 5831 5833 5836 5837 5839 5840 5841 5843 5842 5842 5840 5837 5835 5835 5836 5835 5835 5834 5832 5831 5830 5830 5830 5831 5832 5833 5834 5836 5838 5840 5842 5846 5848 5851 5853 5856 5858 5862 5864
5813 5816 5818 5821 5824 5826 5829 5832 5833 5834 5836 5837 5839 5839 5838 5836 5835 5832 5832 5834 5833 5832 5831 5829 5828 5828 5828 5828 5829 5830 5831 5832 5833 5835 5837 5839 5842 5845 5848 5850 5853 5856 5859 5862
5808 5812 5814 5817 5820 5823 5825 5828 5830 5831 5832 5833 5833 5834 5835 5834 5833 5831 5830 5830 5830 5829 5828 5827 5826 5826 5826 5827 5827 5828 5829 5830 5831 5832 5834 5836 5839 5842 5845 5847 5850 5853 5857 5860
5804 5808 5811 5813 5816 5819 5821 5825 5827 5829 5829 5829 5828 5830 5831 5830 5830 5829 5828 5827 5827 5827 5826 5825 5825 5824 5825 5825 5825 5826 5827 5828 5829 5830 5832 5834 5836 5839 5842 5844 5847 5850 5854 5858
5803 5806 5809 5810 5812 5815 5818 5820 5824 5826 5826 5826 5826 5827 5827 5826 5827 5827 5825 5825 5824 5824 5823 5823 5823 5823 5823 5823 5823 5824 5825 5826 5827 5828 5829 5831 5834 5836 5839 5842 5845 5848 5851 5854
5799 5802 5805 5807 5809 5811 5815 5817 5820 5822 5822 5823 5824 5823 5822 5822 5823 5823 5823 5822 5822 5822 5821 5821 5821 5821 5821 5821 5821 5822 5822 5823 5824 5825 5827 5829 5831 5834 5836 5839 5842 5846 5849 5852
5794 5797 5801 5803 5804 5808 5811 5814 5816 5818 5819 5821 5820 5821 5818 5818 5818 5819 5819 5819 5819 5819 5819 5818 5818 5819 5819 5819 5819 5820 5820 5821 5822 5823 5824 5827 5829 5832 5834 5837 5840 5843 5846 5849
5789 5793 5796 5799 5802 5804 5807 5809 5812 5814 5815 5816 5817 5819 5815 5815 5814 5814 5815 5816 5815 5815 5816 5816 5816 5817 5817 5818 5818 5818 5819 5819 5820 5821 5823 5825 5827 5830 5832 5835 5838 5841 5844 5847
5784 5788 5791 5795 5798 5799 5801 5804 5806 5809 5811 5812 5814 5816 5812 5811 5810 5811 5812 5812 5812 5813 5813 5813 5814 5814 5815 5816 5816 5817 5817 5818 5819 5820 5822 5824 5826 5828 5830 5833 5835 5838 5841 5844
5779 5782 5787 5791 5791 5793 5796 5799 5802 5804 5806 5808 5810 5810 5807 5807 5807 5806 5807 5808 5808 5810 5810 5811 5811 5812 5813 5814 5815 5815 5816 5817 5818 5819 5821 5822 5824 5827 5829 5831 5833 5836 5838 5841
5773 5777 5781 5784 5785 5787 5790 5794 5797 5799 5801 5804 5804 5804 5802 5802 5802 5801 5803 5805 5806 5806 5807 5807 5808 5809 5810 5811 5812 5813 5814 5815 5816 5818 5819 5820 5822 5825 5827 5829 5831 5833 5835 5838
5767 5772 5775 5778 5781 5782 5785 5788 5791 5794 5796 5797 5798 5798 5797 5798 5798 5798 5799 5800 5801 5802 5802 5803 5804 5805 5807 5808 5809 5811 5812 5813 5814 5815 5817 5818 5820 5822 5824 5826 5828 5830 5832 5835
5761 5766 5770 5774 5776 5778 5781 5783 5785 5788 5790 5790 5790 5790 5790 5792 5792 5793 5794 5795 5796 5797 5798 5799 5800 5802 5803 5805 5806 5807 5809 5810 5812 5813 5815 5816 5818 5820 5822 5823 5825 5827 5829 5831
5755 5760 5764 5768 5771 5773 5777 5777 5779 5781 5783 5784 5784 5784 5785 5787 5787 5788 5789 5790 5792 5793 5794 5795 5796 5798 5800 5801 5803 5804 5806 5807 5809 5811 5812 5814 5816 5817 5819 5821 5822 5824 5826 5828
5750 5754 5758 5761 5764 5767 5769 5771 5773 5775 5776 5777 5777 5778 5779 5780 5781 5782 5783 5785 5786 5787 5789 5790 5791 5794 5796 5798 5799 5801 5802 5804 5806 5808 5809 5811 5813 5815 5816 5818 5819 5820 5822 5824
5743 5748 5752 5755 5758 5761 5763 5765 5767 5769 5769 5769 5770 5771 5773 5775 5775 5776 5777 5778 5780 5782 5783 5785 5788 5789 5792 5793 5795 5797 5799 5801 5802 5804 5806 5808 5809 5811 5812 5814 5815 5816 5818 5819
5738 5741 5745 5749 5751 5753 5755 5757 5760 5763 5763 5763 5764 5765 5767 5768 5769 5769 5771 5772 5774 5776 5778 5780 5782 5784 5786 5788 5790 5792 5794 5796 5798 5799 5802 5803 5805 5806 5808 5809 5810 5811 5813 5814
5733 5736 5739 5742 5745 5748 5748 5750 5753 5754 5756 5756 5757 5758 5759 5761 5762 5762 5764 5765 5768 5770 5772 5773 5775 5778 5780 5782 5784 5787 5789 5791 5792 5794 5796 5798 5799 5801 5802 5804 5805 5806 5807 5808
5727 5730 5733 5736 5739 5740 5742 5744 5745 5747 5749 5750 5751 5752 5752 5754 5756 5756 5757 5759 5761 5764 5765 5767 5770 5772 5774 5776 5779 5781 5783 5785 5787 5788 5790 5791 5793 5794 5796 5797 5798 5799 5801 5802
5720 5723 5726 5729 5731 5734 5736 5736 5738 5741 5743 5743 5744 5745 5746 5747 5749 5750 5752 5754 5756 5758 5759 5761 5763 5765 5767 5770 5772 5774 5776 5778 5780 5782 5783 5785 5786 5787 5788 5790 5791 5792 5793 5794
5714 5718 5721 5723 5725 5727 5729 5731 5733 5734 5736 5736 5737 5738 5740 5741 5743 5744 5746 5747 5749 5751 5753 5755 5757 5759 5761 5763 5765 5768 5769 5771 5773 5775 5777 5778 5779 5780 5781 5783 5784 5785 5785 5786
5710 5713 5715 5717 5720 5722 5724 5725 5727 5729 5730 5730 5731 5732 5733 5734 5736 5738 5740 5741 5743 5745 5747 5749 5751 5753 5755 5757 5759 5761 5762 5764 5766 5768 5769 5771 5772 5773 5774 5775 5776 5777 5777 5777
Wind_Speed
21 21 19 16 14 14 14 13 14 13 14 16 17 16 15 15 16 17 18 18 17 17 16 15 16 16 15 14 13 14 15 16 17 16 17 17 17 17 17 17 17 17 16 14
22 20 18 17 16 17 17 17 16 14 15 17 17 15 14 16 18 18 18 18 17 17 17 15 16 15 14 14 13 13 14 15 16 16 17 18 17 16 15 17 17 17 16 15
21 16 17 18 18 19 19 18 16 14 16 16 16 15 15 15 16 17 17 17 17 18 16 15 15 14 13 13 12 14 15 15 15 15 16 18 17 16 15 16 17 17 17 17
21 19 19 20 20 19 19 16 17 17 17 15 14 15 15 16 18 17 16 16 16 17 17 16 14 14 13 12 12 13 13 14 14 14 15 17 17 17 17 16 17 18 17 16
20 20 21 21 20 19 18 16 18 19 18 15 14 15 15 16 17 17 15 16 16 16 16 15 14 13 12 10 10 11 12 12 13 14 15 17 17 17 17 16 17 18 18 16
20 19 21 20 19 19 18 17 17 15 15 15 16 16 14 16 16 15 15 16 16 16 15 15 13 11 10 10 9 10 11 12 12 13 14 16 17 17 17 16 17 18 18 18
20 20 20 19 18 18 19 17 15 14 14 14 14 15 14 17 17 19 17 17 16 15 14 13 11 9 8 8 8 8 10 10 11 12 14 16 17 17 17 17 18 19 19 18
18 19 19 19 19 18 18 17 16 15 14 14 13 13 13 16 17 19 18 16 15 14 13 12 11 9 9 9 8 9 9 9 10 11 14 15 17 17 17 17 17 18 19 19
15 15 17 19 19 19 18 18 16 15 15 15 13 11 13 15 17 18 18 16 14 13 13 11 11 10 9 9 9 9 9 9 10 11 12 14 16 16 17 17 18 18 18 19
18 17 17 18 18 19 19 17 17 18 18 16 14 13 15 16 15 16 17 16 14 13 13 11 10 11 10 9 9 9 10 10 11 12 13 13 14 16 17 18 18 18 18 18
21 18 17 18 18 17 19 19 19 19 19 16 16 16 15 16 15 15 18 18 16 14 13 12 11 11 11 10 9 9 9 10 10 11 12 13 14 15 16 17 18 17 17 18
24 20 18 18 17 16 19 20 20 21 21 20 18 17 16 17 16 15 17 18 16 13 14 13 11 11 11 10 9 9 9 9 9 10 11 12 13 13 15 16 17 17 17 17
26 24 22 19 20 19 20 21 21 21 20 20 19 20 18 18 16 17 18 18 18 15 15 14 13 12 12 11 10 10 9 9 9 10 11 12 12 13 14 15 16 17 17 18
26 26 24 21 21 20 19 19 20 21 20 20 21 21 22 21 19 18 18 17 18 16 16 15 14 14 13 12 11 10 10 10 10 11 12 12 13 13 14 15 16 16 17 17
28 27 26 25 22 20 20 19 20 21 21 21 22 24 25 24 21 20 19 20 20 18 17 16 16 15 14 13 12 11 12 11 12 12 12 13 14 14 14 15 16 17 18 18
30 28 27 27 24 22 22 20 19 20 20 22 23 24 25 24 23 22 21 20 20 20 19 17 16 15 14 14 14 13 13 13 13 13 13 13 13 13 14 14 15 16 17 18
30 29 28 26 24 24 22 22 22 22 22 23 24 23 22 23 23 23 21 22 22 21 20 18 17 16 15 15 14 14 13 13 13 14 14 14 13 14 14 15 15 17 18 18
29 29 28 26 25 24 22 21 23 22 23 26 27 28 27 26 25 24 24 24 22 21 21 20 19 18 17 16 16 15 14 14 14 14 14 14 14 14 14 15 16 17 17 17
28 28 27 26 25 24 23 23 24 24 26 28 27 29 29 29 28 28 27 25 23 23 22 21 19 19 19 18 18 17 15 15 16 16 15 15 15 15 15 16 17 18 18 18
27 27 27 26 26 25 26 25 26 27 28 29 29 29 28 27 27 27 27 25 24 24 24 23 22 21 21 20 20 19 18 17 18 18 17 17 17 17 17 17 18 19 19 20
24 25 26 26 26 27 28 27 27 28 28 28 28 29 28 28 28 28 27 26 25 25 25 24 24 23 23 22 21 20 20 20 20 20 20 20 20 19 19 19 19 20 21 22
25 25 25 26 26 27 27 27 28 28 28 28 27 27 27 27 27 27 27 26 25 25 25 25 25 26 25 24 24 23 22 22 22 22 22 22 22 22 22 22 22 22 23 24
26 27 27 28 28 27 27 27 27 27 28 28 28 27 26 26 26 26 26 26 25 25 26 26 26 27 27 26 25 25 25 25 25 24 24 24 24 24 25 24 24 24 25 25
26 27 28 28 27 27 27 27 27 27 27 26 27 27 27 26 25 25 25 25 25 25 25 26 26 26 27 27 27 27 27 27 26 26 25 26 26 26 26 26 26 26 26 26
24 24 25 26 26 26 28 27 26 26 26 26 26 26 26 25 24 24 24 24 24 24 24 25 25 25 26 26 26 27 27 28 28 28 27 26 27 26 26 26 26 27 28 28
22 23 23 24 25 25 25 26 25 25 25 25 25 24 25 24 23 22 22 23 23 23 23 24 24 25 25 26 26 27 27 29 29 29 28 28 28 28 28 28 28 28 29 30
Wind_Direction
252 249 247 244 239 232 238 244 249 249 248 256 262 266 268 273 279 282 288 291 293 295 294 291 289 287 287 284 272 261 253 246 246 243 237 237 239 240 237 235 235 233 232 233
247 246 243 236 232 234 240 240 243 245 247 257 264 266 262 266 274 283 288 291 293 291 295 294 292 290 286 282 271 260 256 252 252 246 238 235 235 236 235 235 233 231 230 230
244 240 240 234 233 235 239 238 239 243 248 259 266 267 262 257 272 281 286 289 290 290 294 295 292 289 282 279 271 263 258 255 254 247 237 234 230 230 233 237 234 230 230 230
235 228 234 235 235 235 237 236 236 240 247 253 261 269 273 272 274 279 284 289 290 290 292 293 290 284 275 271 264 261 258 258 254 245 236 233 230 230 233 236 233 229 227 226
233 227 231 234 232 233 231 232 237 240 242 241 248 260 267 272 277 282 290 293 292 293 292 292 289 279 270 263 261 258 256 256 254 245 234 232 231 231 232 233 230 226 224 222
224 232 233 234 232 231 230 231 239 240 239 242 245 250 259 271 280 280 285 290 292 292 292 291 285 275 266 259 261 258 256 251 250 242 235 232 230 231 232 231 226 224 220 217
221 224 233 231 227 229 228 227 231 241 245 247 240 239 249 266 276 280 280 288 288 288 290 288 278 271 266 260 261 260 257 248 245 245 237 230 229 230 232 229 224 221 218 217
228 224 230 234 226 224 230 226 224 236 250 259 250 240 240 258 273 281 284 286 285 285 286 283 273 268 265 259 262 260 255 249 245 247 238 230 230 229 228 225 222 219 216 217
221 231 228 233 230 221 226 223 220 237 253 265 264 249 235 250 268 278 285 285 287 289 286 282 274 266 262 260 260 254 250 249 249 247 238 233 229 228 225 222 222 219 217 216
201 217 218 229 233 223 218 224 219 227 243 252 254 245 244 251 262 270 282 292 292 286 282 280 274 266 261 260 260 255 252 251 253 247 235 231 228 224 221 218 218 215 214 215
201 210 212 221 229 225 219 217 220 227 234 245 254 248 250 259 254 269 279 288 291 286 282 277 270 264 260 259 256 252 251 251 249 240 232 226 225 223 221 217 215 213 214 217
207 210 214 219 228 227 226 222 223 229 232 235 245 256 263 265 262 263 277 286 288 282 282 275 266 259 259 257 256 257 253 249 240 232 227 223 219 220 219 214 212 214 216 219
210 212 214 214 219 221 222 223 225 231 235 236 243 256 261 265 261 262 269 277 280 282 282 274 264 259 258 257 257 257 250 248 234 224 220 218 219 218 216 214 213 215 216 220
213 214 211 216 221 221 221 223 225 229 234 239 241 251 257 260 258 262 266 271 278 278 277 270 261 256 256 255 253 251 246 242 233 228 222 220 220 220 219 217 217 217 219 221
216 217 214 217 224 220 220 223 227 232 235 239 241 247 250 259 262 262 268 273 274 274 273 266 259 252 252 251 247 247 245 242 235 232 230 224 222 222 222 223 222 223 224 224
219 219 218 221 227 230 228 225 230 236 237 241 245 250 253 259 259 263 265 266 268 268 268 263 255 250 248 248 248 249 244 240 236 232 232 228 226 226 227 226 225 226 227 228
223 221 221 225 231 236 236 232 231 234 238 242 247 249 255 258 257 261 263 262 265 264 261 259 255 250 249 248 252 250 243 240 236 234 233 232 233 234 234 235 234 231 232 234
224 224 224 226 230 236 236 239 239 236 239 243 247 253 255 256 259 261 261 262 262 262 260 256 253 251 251 251 253 250 244 239 238 235 232 232 233 234 235 237 238 238 237 236
229 227 227 228 230 236 238 237 242 245 244 245 248 250 253 255 260 261 260 258 258 257 254 253 252 248 248 248 249 248 243 241 240 239 237 236 237 238 240 241 243 241 240 240
228 228 228 229 231 231 235 236 241 246 249 249 252 255 258 258 259 258 258 255 256 254 252 252 250 248 247 246 246 244 244 243 244 244 242 242 243 244 244 244 244 244 244 246
227 228 228 230 234 236 238 238 242 246 249 253 256 257 259 260 259 259 258 258 256 254 252 251 250 249 248 247 246 245 245 246 245 246 246 247 247 248 248 249 250 250 250 251
230 233 232 232 233 236 239 238 242 249 253 258 259 260 258 258 258 258 256 256 254 251 250 250 249 248 247 247 247 246 246 246 248 249 249 249 250 251 251 253 253 253 254 256
228 231 234 235 237 240 243 243 247 252 256 258 259 260 258 259 259 256 254 254 254 251 250 250 250 248 247 248 249 248 248 247 250 252 251 250 252 254 255 256 255 257 259 261
232 232 235 238 239 243 246 248 249 251 255 257 257 259 261 261 258 256 254 253 252 252 252 250 250 249 248 248 250 249 249 248 249 250 253 252 253 254 255 257 259 262 263 265
230 234 235 239 245 247 246 250 251 254 254 256 259 260 259 258 256 254 252 250 250 251 251 250 250 248 248 248 249 249 249 248 249 251 254 255 256 257 256 257 259 263 265 265
237 237 236 239 244 248 251 253 255 257 258 258 259 258 255 255 250 249 248 250 250 250 250 249 249 250 249 248 249 250 250 249 249 251 253 256 259 259 259 260 261 263 266 267